Date String (YYYY-MM-DD hh:mm:ss) UTC,Instrument flags,Ambient pressure (hPa),Sample flow (lpm),Bypass flow (lpm),Sample temperature (°C),Ambient temperature (°C),ASC tube jacket temperature (°C),LED temperature (°C),Box temperature (°C),Sample RH (%),Span deviation,Mass concentration (μg/m³),Mass concentration (μg/m³),Mass concentration (μg/m³)
DateTimeUTC,F1_M11,P_M11,Q1_M11,Q2_M11,T1_M11,T2_M11,T3_M11,T4_M11,T5_M11,U1_M11,ZSPAN_M11,X0_M11,X2_M11,X1_M11
2022-08-19 15:00:00,,0829.3,5.02,0.00,29.8,27.7,00.0,38.7,31.6,24.0,0000.0,0013.40,0006.86,0005.99
2022-08-19 15:01:00,,0829.2,4.99,0.00,29.8,27.9,00.0,38.7,31.6,23.8,0000.0,0013.37,0006.81,0005.96
2022-08-19 15:02:00,,0829.4,5.00,0.00,29.8,28.0,00.0,38.7,31.6,23.9,0000.0,0012.49,0006.76,0005.92
2022-08-19 15:03:00,,0829.3,5.01,0.00,29.8,28.2,00.0,38.7,31.6,23.9,0000.0,0012.07,0006.71,0005.90
2022-08-19 15:04:00,,0829.2,5.01,0.00,29.8,28.3,00.0,38.7,31.7,23.6,0000.0,0011.69,0006.68,0005.86
2022-08-19 15:05:00,,0829.3,4.98,0.00,29.8,28.4,00.0,38.7,31.7,23.4,0000.0,0011.60,0006.64,0005.83
2022-08-19 15:06:00,,0829.4,5.00,0.00,29.9,28.5,00.0,38.7,31.7,23.8,0000.0,0012.06,0006.64,0005.82
2022-08-19 15:07:00,,0829.4,5.01,0.00,29.9,28.6,00.0,38.7,31.8,23.6,0000.0,0011.56,0006.60,0005.79
2022-08-19 15:08:00,,0829.2,4.99,0.00,29.9,28.7,00.0,38.7,31.8,24.0,0000.0,0011.39,0006.57,0005.77
2022-08-19 15:09:00,,0829.4,4.99,0.00,29.9,28.8,00.0,38.7,31.8,23.5,0000.0,0012.03,0006.56,0005.74
2022-08-19 15:10:00,,0829.2,5.01,0.00,29.9,28.8,00.0,38.7,31.9,23.3,0000.0,0013.48,0006.60,0005.71
2022-08-19 15:11:00,,0829.2,5.00,0.00,30.0,28.9,00.0,38.7,31.9,22.9,0000.0,0015.46,0006.59,0005.71
2022-08-19 15:12:00,,0829.2,5.00,0.00,30.0,29.0,00.0,38.7,31.9,23.0,0000.0,0015.89,0006.58,0005.70
2022-08-19 15:13:00,,0829.3,4.99,0.00,30.0,29.0,00.0,38.7,31.9,23.0,0000.0,0016.12,0006.59,0005.69
2022-08-19 15:14:00,,0829.4,4.99,0.00,30.0,29.0,00.0,38.7,32.0,23.0,0000.0,0016.36,0006.62,0005.68
2022-08-19 15:15:00,,0829.3,5.00,0.00,30.1,29.1,00.0,38.8,32.0,22.9,0000.0,0017.48,0006.61,0005.68
2022-08-19 15:16:00,,0829.3,5.00,0.00,30.1,29.1,00.0,38.8,32.0,23.0,0000.0,0017.72,0006.56,0005.68
2022-08-19 15:17:00,,0829.3,5.00,0.00,30.1,29.2,00.0,38.8,32.0,23.0,0000.0,0017.34,0006.54,0005.66
2022-08-19 15:18:00,,0829.4,5.00,0.00,30.1,29.2,00.0,38.8,32.0,23.1,0000.0,0017.08,0006.54,0005.66
2022-08-19 15:19:00,,0829.4,5.00,0.00,30.2,29.2,00.0,38.8,32.1,22.9,0000.0,0017.11,0006.51,0005.66
2022-08-19 15:20:00,,0829.4,5.00,0.00,30.2,29.3,00.0,38.9,32.1,22.7,0000.0,0017.08,0006.50,0005.67
2022-08-19 15:21:00,,0829.3,5.01,0.00,30.2,29.1,00.0,38.9,32.1,22.6,0000.0,0016.42,0006.47,0005.67
2022-08-19 15:22:00,,0829.3,4.99,0.00,30.1,28.2,00.0,38.8,31.8,22.6,0000.0,0014.71,0006.44,0005.64
2022-08-19 15:23:00,,0829.3,5.00,0.00,30.0,27.5,00.0,38.8,31.6,22.6,0000.0,0014.82,0006.42,0005.63
2022-08-19 15:24:00,,0829.3,5.01,0.00,30.0,27.4,00.0,38.7,31.6,23.1,0000.0,0015.07,0006.44,0005.64
2022-08-19 15:25:00,,0829.3,5.00,0.00,29.9,27.4,00.0,38.7,31.5,23.3,0000.0,0015.05,0006.44,0005.64
2022-08-19 15:26:00,,0829.3,4.99,0.00,29.8,27.6,00.0,38.7,31.5,22.5,0000.0,0014.19,0006.43,0005.64
2022-08-19 15:27:00,,0829.4,5.00,0.00,29.8,27.7,00.0,38.7,31.5,22.9,0000.0,0013.58,0006.41,0005.64
2022-08-19 15:28:00,,0829.4,5.00,0.00,29.8,27.9,00.0,38.6,31.6,22.8,0000.0,0013.48,0006.41,0005.64
2022-08-19 15:29:00,,0829.5,5.00,0.00,29.8,28.1,00.0,38.6,31.6,22.8,0000.0,0013.95,0006.38,0005.63
2022-08-19 15:30:00,,0829.5,5.00,0.00,29.8,28.3,00.0,38.6,31.7,23.3,0000.0,0014.24,0006.42,0005.63
2022-08-19 15:31:00,,0829.5,5.00,0.00,29.8,28.4,00.0,38.6,31.7,23.9,0000.0,0014.52,0006.47,0005.63
2022-08-19 15:32:00,,0829.5,5.01,0.00,29.8,28.5,00.0,38.6,31.7,24.0,0000.0,0014.41,0006.52,0005.66
2022-08-19 15:33:00,,0829.5,5.00,0.00,29.9,28.6,00.0,38.6,31.7,23.9,0000.0,0014.07,0006.60,0005.71
2022-08-19 15:34:00,,0829.5,5.00,0.00,29.9,28.7,00.0,38.7,31.8,23.8,0000.0,0013.55,0006.67,0005.74
2022-08-19 15:35:00,,0829.5,4.99,0.00,29.9,28.8,00.0,38.7,31.8,23.8,0000.0,0012.84,0006.66,0005.75
2022-08-19 15:36:00,,0829.5,5.00,0.00,29.9,28.8,00.0,38.7,31.9,23.7,0000.0,0012.98,0006.65,0005.78
2022-08-19 15:37:00,,0829.5,5.01,0.00,29.9,28.9,00.0,38.7,31.9,23.7,0000.0,0012.83,0006.69,0005.81
2022-08-19 15:38:00,,0829.5,5.01,0.00,30.0,29.0,00.0,38.7,31.9,23.8,0000.0,0013.65,0006.77,0005.84
2022-08-19 15:39:00,,0829.5,5.00,0.00,30.0,29.0,00.0,38.7,31.9,24.2,0000.0,0014.27,0006.83,0005.88
2022-08-19 15:40:00,,0829.5,5.00,0.00,30.0,29.1,00.0,38.7,32.0,23.7,0001.1,0014.06,0006.88,0005.92
2022-08-19 15:41:00,,0829.6,5.00,0.00,30.0,29.1,00.0,38.7,32.0,23.6,0001.4,0013.58,0006.92,0005.97
2022-08-19 15:42:00,,0829.5,5.00,0.00,30.1,29.2,00.0,38.8,32.0,22.6,0001.5,0013.37,0006.92,0006.00
2022-08-19 15:43:00,,0829.5,4.99,0.00,30.1,29.2,00.0,38.8,32.0,22.8,0000.0,0013.23,0006.91,0006.01
2022-08-19 15:44:00,,0829.5,4.99,0.00,30.1,29.2,00.0,38.8,32.1,23.6,0000.0,0013.27,0006.88,0006.01
2022-08-19 15:45:00,,0829.5,4.99,0.00,30.2,29.3,00.0,38.8,32.1,24.1,0000.0,0014.00,0006.88,0006.02
2022-08-19 15:46:00,,0829.5,5.02,0.00,30.2,29.3,00.0,38.9,32.1,23.8,0000.0,0014.19,0006.92,0006.04
2022-08-19 15:47:00,,0829.5,5.00,0.00,30.2,29.4,00.0,38.9,32.1,23.8,0000.0,0014.87,0007.00,0006.06
2022-08-19 15:48:00,,0829.5,5.00,0.00,30.2,29.4,00.0,38.9,32.2,23.8,0000.0,0015.25,0007.06,0006.09
2022-08-19 15:49:00,,0829.5,5.00,0.00,30.3,29.4,00.0,38.9,32.2,24.4,0000.0,0014.73,0007.07,0006.11
2022-08-19 15:50:00,,0829.5,5.00,0.00,30.3,29.5,00.0,39.0,32.2,23.9,0000.0,0014.61,0007.08,0006.14
2022-08-19 15:51:00,,0829.5,5.01,0.00,30.3,29.5,00.0,39.0,32.3,23.8,0000.0,0014.60,0007.10,0006.16
2022-08-19 15:52:00,,0829.5,5.00,0.00,30.4,29.5,00.0,39.0,32.3,23.9,0000.0,0015.35,0007.14,0006.18
2022-08-19 15:53:00,,0829.5,5.00,0.00,30.4,29.6,00.0,39.0,32.3,24.0,0000.0,0016.93,0007.23,0006.21
2022-08-19 15:54:00,,0829.5,5.00,0.00,30.4,29.6,00.0,39.1,32.3,24.2,0000.0,0018.89,0007.27,0006.23
2022-08-19 15:55:00,,0829.5,5.00,0.00,30.4,29.6,00.0,39.1,32.4,24.4,0000.0,0019.26,0007.30,0006.25
2022-08-19 15:56:00,,0829.5,5.00,0.00,30.5,29.6,00.0,39.1,32.4,24.3,0000.0,0019.01,0007.33,0006.27
2022-08-19 15:57:00,,0829.5,4.99,0.00,30.5,29.7,00.0,39.1,32.4,24.1,0000.0,0018.87,0007.32,0006.30
2022-08-19 15:58:00,,0829.5,5.00,0.00,30.5,29.7,00.0,39.2,32.4,24.0,0000.0,0018.35,0007.36,0006.33
2022-08-19 15:59:00,,0829.5,5.00,0.00,30.6,29.7,00.0,39.2,32.4,24.1,0000.0,0018.47,0007.38,0006.35
